O3B MPOWER A

Last updated on Tue Aug 05 2025 00:02:07 GMT+0000 (Coordinated Universal Time)

1 64866U 25153A 25216.04933964 .00000045 00000+0 -10540-2 0 9991 2 64866 8.7040 72.7484 1866856 214.4291 131.9558 7.18924737 893
UTC large
Height (km)
Speed (km/s)
/
Latitude / Longitude
Inclination (degrees)
Orbital Period (minutes)
Azimuth
Elevation
Range (km)
Doppler Factor

Next 0 passes for location: London (51.5072 / 0.1276)

Sorry there are no passes over London.
O3B MPOWER A